| time (UTC) | temp F | wind direction | speed knots | gust knots | rain 1hr in | rain 24hr in | rain mn in | humidity % | barometer mb |
| 20260504050545 | 45 | 320 | 8.7 | 14.8 | 0.00 | 0.00 | 0.00 | 74 | 1014.2 |
| 20260504045525 | 44 | 325 | 9.6 | 14.8 | 0.00 | 0.00 | 0.00 | 75 | 1014.2 |
| 20260504044525 | 44 | 312 | 8.7 | 14.8 | 0.00 | 0.00 | 0.00 | 75 | 1014.1 |
| 20260504043524 | 44 | 329 | 8.7 | 17.4 | 0.00 | 0.00 | 0.00 | 75 | 1014.1 |
| 20260504042525 | 44 | 326 | 7.8 | 13.0 | 0.00 | 0.00 | 0.00 | 76 | 1014.1 |
| 20260504041524 | 43 | 328 | 7.8 | 14.8 | 0.00 | 0.00 | 0.00 | 75 | 1014.0 |
| 20260504040524 | 43 | 327 | 8.7 | 14.8 | 0.00 | 0.00 | 0.00 | 75 | 1014.0 |
| 20260504035525 | 43 | 330 | 7.0 | 14.8 | 0.00 | 0.00 | 0.00 | 75 | 1014.0 |
| 20260504034524 | 43 | 327 | 8.7 | 14.8 | 0.00 | 0.02 | 0.00 | 74 | 1013.9 |
| 20260504033525 | 43 | 321 | 7.8 | 14.8 | 0.00 | 0.03 | 0.00 | 74 | 1013.9 |
| 20260504032545 | 43 | 318 | 8.7 | 14.8 | 0.00 | 0.03 | 0.00 | 74 | 1013.8 |
| 20260504031524 | 43 | 324 | 7.8 | 14.8 | 0.00 | 0.03 | 0.00 | 74 | 1013.7 |
| 20260504030537 | 43 | 320 | 7.8 | 14.8 | 0.00 | 0.03 | 0.00 | 74 | 1013.7 |
| 20260504025536 | 43 | 319 | 7.8 | 13.0 | 0.00 | 0.03 | 0.00 | 73 | 1013.6 |
| 20260504024525 | 43 | 319 | 7.0 | 13.0 | 0.00 | 0.03 | 0.00 | 73 | 1013.6 |
| 20260504023525 | 43 | 320 | 7.0 | 13.0 | 0.00 | 0.03 | 0.00 | 72 | 1013.7 |
| 20260504022525 | 43 | 332 | 7.0 | 14.8 | 0.00 | 0.03 | 0.00 | 71 | 1013.7 |
| 20260504021524 | 43 | 319 | 7.8 | 14.8 | 0.00 | 0.03 | 0.00 | 71 | 1013.8 |
| 20260504020625 | 43 | 323 | 7.8 | 13.0 | 0.00 | 0.03 | 0.00 | 71 | 1013.9 |
| 20260504015537 | 43 | 324 | 7.0 | 13.0 | 0.00 | 0.03 | 0.00 | 73 | 1014.0 |
| 20260504014524 | 43 | 329 | 7.8 | 13.0 | 0.00 | 0.03 | 0.00 | 73 | 1014.1 |
| 20260504013559 | 42 | 313 | 7.0 | 14.8 | 0.00 | 0.03 | 0.00 | 74 | 1014.3 |
| 20260504012537 | 43 | 325 | 7.0 | 13.0 | 0.00 | 0.03 | 0.00 | 72 | 1014.3 |
| 20260504011537 | 43 | 313 | 6.1 | 9.6 | 0.00 | 0.03 | 0.00 | 72 | 1014.5 |
| 20260504010524 | 43 | 324 | 6.1 | 13.0 | 0.00 | 0.03 | 0.00 | 73 | 1014.6 |
| 20260504005605 | 43 | 325 | 6.1 | 9.6 | 0.00 | 0.03 | 0.00 | 72 | 1014.7 |
| 20260504004545 | 42 | 325 | 6.1 | 9.6 | 0.00 | 0.03 | 0.00 | 73 | 1014.8 |
| 20260504003545 | 42 | 318 | 5.2 | 9.6 | 0.00 | 0.03 | 0.00 | 73 | 1014.9 |
| 20260504002649 | 42 | 323 | 7.0 | 9.6 | 0.00 | 0.03 | 0.00 | 72 | 1015.0 |
| 20260504001524 | 42 | 316 | 7.0 | 13.0 | 0.00 | 0.03 | 0.00 | 71 | 1015.0 |
| 20260504000524 | 43 | 323 | 6.1 | 9.6 | 0.00 | 0.03 | 0.00 | 68 | 1015.1 |
| 20260503235525 | 43 | 330 | 6.1 | 7.8 | 0.00 | 0.03 | 0.00 | 68 | 1015.1 |
| 20260503234536 | 43 | 320 | 6.1 | 9.6 | 0.00 | 0.03 | 0.00 | 67 | 1015.1 |
| 20260503233525 | 43 | 324 | 6.1 | 9.6 | 0.00 | 0.03 | 0.00 | 67 | 1015.1 |
| 20260503232524 | 43 | 330 | 6.1 | 9.6 | 0.00 | 0.03 | 0.00 | 68 | 1015.2 |
| 20260503231524 | 43 | 319 | 6.1 | 9.6 | 0.00 | 0.03 | 0.00 | 67 | 1015.3 |
| 20260503230525 | 43 | 328 | 5.2 | 7.8 | 0.00 | 0.03 | 0.00 | 67 | 1015.3 |
| 20260503225524 | 43 | 332 | 5.2 | 9.6 | 0.00 | 0.03 | 0.00 | 67 | 1015.4 |
| 20260503224617 | 44 | 323 | 5.2 | 7.8 | 0.00 | 0.03 | 0.00 | 66 | 1015.5 |
| 20260503223525 | 44 | 330 | 5.2 | 7.8 | 0.00 | 0.03 | 0.00 | 66 | 1015.6 |
| 20260503222537 | 44 | 330 | 5.2 | 7.8 | 0.00 | 0.03 | 0.00 | 67 | 1015.6 |
| 20260503221524 | 43 | 335 | 5.2 | 9.6 | 0.00 | 0.03 | 0.00 | 68 | 1015.7 |
| 20260503220525 | 43 | 331 | 5.2 | 9.6 | 0.00 | 0.03 | 0.00 | 68 | 1015.7 |
| 20260503215524 | 44 | 350 | 5.2 | 9.6 | 0.00 | 0.03 | 0.00 | 67 | 1015.7 |
| 20260503214545 | 44 | 348 | 6.1 | 9.6 | 0.00 | 0.03 | 0.00 | 68 | 1015.7 |
| 20260503213524 | 44 | 350 | 6.1 | 9.6 | 0.00 | 0.03 | 0.00 | 68 | 1015.6 |
| 20260503212525 | 44 | 344 | 6.1 | 7.8 | 0.00 | 0.03 | 0.00 | 68 | 1015.6 |
| 20260503211525 | 44 | 345 | 6.1 | 9.6 | 0.00 | 0.03 | 0.00 | 68 | 1015.6 |
| 20260503210544 | 44 | 341 | 6.1 | 7.8 | 0.00 | 0.03 | 0.00 | 68 | 1015.6 |
| 20260503205524 | 44 | 347 | 5.2 | 7.8 | 0.00 | 0.03 | 0.03 | 68 | 1015.6 |
| 20260503204525 | 44 | 339 | 6.1 | 7.8 | 0.00 | 0.03 | 0.03 | 68 | 1015.8 |
| 20260503203536 | 44 | 341 | 6.1 | 9.6 | 0.00 | 0.03 | 0.03 | 69 | 1015.9 |
| 20260503202524 | 44 | 342 | 6.1 | 9.6 | 0.00 | 0.03 | 0.03 | 69 | 1016.0 |
| 20260503201524 | 44 | 346 | 5.2 | 7.8 | 0.00 | 0.03 | 0.03 | 70 | 1016.1 |
| 20260503200545 | 44 | 336 | 6.1 | 9.6 | 0.00 | 0.03 | 0.03 | 70 | 1016.2 |
| 20260503195524 | 44 | 339 | 6.1 | 7.8 | 0.00 | 0.03 | 0.03 | 70 | 1016.3 |
| 20260503194545 | 44 | 347 | 5.2 | 7.8 | 0.00 | 0.03 | 0.03 | 70 | 1016.4 |
| 20260503193524 | 44 | 342 | 5.2 | 9.6 | 0.00 | 0.03 | 0.03 | 72 | 1016.5 |
| 20260503192525 | 44 | 334 | 5.2 | 7.8 | 0.00 | 0.03 | 0.03 | 72 | 1016.5 |
| 20260503191524 | 44 | 333 | 5.2 | 7.8 | 0.00 | 0.03 | 0.03 | 73 | 1016.6 |
| 20260503190524 | 43 | 329 | 4.3 | 7.8 | 0.00 | 0.03 | 0.03 | 73 | 1016.8 |
| 20260503185525 | 44 | 345 | 4.3 | 7.8 | 0.00 | 0.03 | 0.03 | 72 | 1017.0 |
| 20260503184525 | 44 | 338 | 4.3 | 6.1 | 0.00 | 0.03 | 0.03 | 72 | 1017.1 |
| 20260503183524 | 44 | 335 | 4.3 | 6.1 | 0.00 | 0.03 | 0.03 | 72 | 1017.3 |
| 20260503182524 | 44 | 339 | 4.3 | 6.1 | 0.00 | 0.03 | 0.03 | 72 | 1017.2 |
| 20260503181524 | 44 | 339 | 4.3 | 6.1 | 0.00 | 0.03 | 0.03 | 71 | 1017.3 |
| 20260503180524 | 44 | 337 | 3.5 | 6.1 | 0.00 | 0.03 | 0.03 | 72 | 1017.4 |
| 20260503175524 | 44 | 353 | 4.3 | 6.1 | 0.00 | 0.03 | 0.03 | 72 | 1017.4 |
| 20260503174524 | 44 | 344 | 3.5 | 3.5 | 0.00 | 0.03 | 0.03 | 73 | 1017.4 |
| 20260503173524 | 45 | 3 | 2.6 | 3.5 | 0.00 | 0.03 | 0.03 | 72 | 1017.4 |
| 20260503172524 | 45 | 23 | 3.5 | 6.1 | 0.00 | 0.03 | 0.03 | 71 | 1017.3 |
| 20260503171625 | 46 | 22 | 4.3 | 6.1 | 0.00 | 0.03 | 0.03 | 68 | 1017.4 |
| 20260503170536 | 47 | 23 | 3.5 | 3.5 | 0.00 | 0.03 | 0.03 | 67 | 1017.4 |
| 20260503150524 | 53 | 35 | 10.4 | 14.8 | 0.00 | 0.03 | 0.03 | 52 | 1017.6 |
| 20260503130524 | 55 | 60 | 11.3 | 17.4 | 0.00 | 0.03 | 0.03 | 48 | 1018.2 |
| 20260503110524 | 53 | 52 | 13.0 | 19.1 | 0.00 | 0.03 | 0.03 | 60 | 1019.2 |
| 20260503081525 | 51 | 47 | 11.3 | 17.4 | 0.00 | 0.03 | 0.03 | 70 | 1019.7 |
| 20260503080525 | 52 | 37 | 11.3 | 21.7 | 0.00 | 0.03 | 0.03 | 69 | 1019.7 |
| 20260503072544 | 50 | 46 | 12.2 | 17.4 | 0.00 | 0.03 | 0.03 | 71 | 1019.6 |
| 20260503071525 | 49 | 28 | 9.6 | 14.8 | 0.00 | 0.03 | 0.03 | 78 | 1019.5 |
| 20260503070525 | 49 | 41 | 9.6 | 14.8 | 0.00 | 0.03 | 0.03 | 79 | 1019.4 |
| 20260503054525 | 47 | 21 | 12.2 | 17.4 | 0.00 | 0.03 | 0.03 | 87 | 1018.9 |
| 20260503053524 | 46 | 15 | 11.3 | 14.8 | 0.00 | 0.03 | 0.03 | 88 | 1018.8 |
| 20260503052525 | 44 | 15 | 10.4 | 17.4 | 0.00 | 0.03 | 0.03 | 89 | 1018.7 |